Time,TemperatureF,DewpointF,PressureIn,WindDirection,WindDirectionDegrees,WindSpeedMPH,WindSpeedGustMPH,Humidity,HourlyPrecipIn,Conditions,Clouds,dailyrainin,SolarRadiationWatts/m^2,SoftwareType,DateUTC
2013-02-24 00:01:00,45.0,27.0,-100.00,East,95,3.0,10.0,50,0.00,,,0.00,0.000000,,2013-02-24 08:01:00,
2013-02-24 00:22:00,45.0,26.0,-100.00,East,101,4.0,11.0,47,0.00,,,0.00,0.000000,,2013-02-24 08:22:00,
2013-02-24 00:32:00,45.0,26.0,-100.00,East,101,4.0,11.0,47,0.00,,,0.00,0.000000,,2013-02-24 08:32:00,
2013-02-24 00:42:00,45.0,26.0,-100.00,East,101,4.0,11.0,47,0.00,,,0.00,0.000000,,2013-02-24 08:42:00,
2013-02-24 00:53:00,45.0,26.0,-100.00,East,101,4.0,11.0,47,0.00,,,0.00,0.000000,,2013-02-24 08:53:00,
2013-02-24 01:01:00,45.0,26.0,-100.00,East,101,4.0,11.0,47,0.00,,,0.00,0.000000,,2013-02-24 09:01:00,
2013-02-24 01:32:00,40.0,26.0,-100.00,SSW,197,2.0,7.0,58,0.00,,,0.00,0.000000,,2013-02-24 09:32:00,
2013-02-24 01:42:00,40.0,26.0,-100.00,SSW,197,2.0,7.0,58,0.00,,,0.00,0.000000,,2013-02-24 09:42:00,
2013-02-24 01:52:00,40.0,26.0,-100.00,SSW,197,2.0,7.0,58,0.00,,,0.00,0.000000,,2013-02-24 09:52:00,
2013-02-24 02:01:00,40.0,26.0,-100.00,SSW,197,2.0,7.0,58,0.00,,,0.00,0.000000,,2013-02-24 10:01:00,
2013-02-24 02:22:00,39.0,27.0,-100.00,SW,222,2.0,6.0,61,0.00,,,0.00,0.000000,,2013-02-24 10:22:00,
2013-02-24 02:32:00,39.0,27.0,-100.00,SW,222,2.0,6.0,61,0.00,,,0.00,0.000000,,2013-02-24 10:32:00,
2013-02-24 02:42:00,39.0,27.0,-100.00,SW,222,2.0,6.0,61,0.00,,,0.00,0.000000,,2013-02-24 10:42:00,
2013-02-24 02:52:00,39.0,27.0,-100.00,SW,222,2.0,6.0,61,0.00,,,0.00,0.000000,,2013-02-24 10:52:00,
2013-02-24 03:01:00,39.0,27.0,-100.00,SW,222,2.0,6.0,61,0.00,,,0.00,0.000000,,2013-02-24 11:01:00,
2013-02-24 03:32:00,43.0,24.0,-100.00,East,80,6.0,10.0,47,0.00,,,0.00,0.000000,,2013-02-24 11:32:00,
2013-02-24 03:42:00,43.0,24.0,-100.00,East,80,6.0,10.0,47,0.00,,,0.00,0.000000,,2013-02-24 11:42:00,
2013-02-24 03:52:00,43.0,24.0,-100.00,East,80,6.0,10.0,47,0.00,,,0.00,0.000000,,2013-02-24 11:52:00,
2013-02-24 04:01:00,43.0,24.0,-100.00,East,80,6.0,10.0,47,0.00,,,0.00,0.000000,,2013-02-24 12:01:00,
2013-02-24 04:04:00,38.0,26.0,-100.00,South,185,2.0,12.0,62,0.00,,,0.00,0.000000,,2013-02-24 12:04:00,
2013-02-24 04:22:00,38.0,26.0,-100.00,South,185,2.0,12.0,62,0.00,,,0.00,0.000000,,2013-02-24 12:22:00,
2013-02-24 04:32:00,38.0,26.0,-100.00,South,185,2.0,12.0,62,0.00,,,0.00,0.000000,,2013-02-24 12:32:00,
2013-02-24 04:46:00,38.0,26.0,-100.00,South,185,2.0,12.0,62,0.00,,,0.00,0.000000,,2013-02-24 12:46:00,
2013-02-24 04:55:00,38.0,26.0,-100.00,South,185,2.0,12.0,62,0.00,,,0.00,0.000000,,2013-02-24 12:55:00,
2013-02-24 05:35:00,36.0,26.0,-100.00,SW,218,2.0,5.0,67,0.00,,,0.00,0.000000,,2013-02-24 13:35:00,
2013-02-24 05:45:00,36.0,26.0,-100.00,SW,218,2.0,5.0,67,0.00,,,0.00,0.000000,,2013-02-24 13:45:00,
2013-02-24 05:54:00,36.0,26.0,-100.00,SW,218,2.0,5.0,67,0.00,,,0.00,0.000000,,2013-02-24 13:54:00,
2013-02-24 06:02:00,36.0,26.0,-100.00,SW,218,2.0,5.0,67,0.00,,,0.00,0.000000,,2013-02-24 14:02:00,
2013-02-24 06:25:00,33.0,25.0,-100.00,SSE,163,1.0,3.0,73,0.00,,,0.00,0.000000,,2013-02-24 14:25:00,
2013-02-24 06:34:00,33.0,25.0,-100.00,SSE,163,1.0,3.0,73,0.00,,,0.00,0.000000,,2013-02-24 14:34:00,
2013-02-24 06:45:00,33.0,25.0,-100.00,SSE,163,1.0,3.0,73,0.00,,,0.00,0.000000,,2013-02-24 14:45:00,
2013-02-24 07:01:00,33.0,25.0,-100.00,SSE,163,1.0,3.0,73,0.00,,,0.00,0.000000,,2013-02-24 15:01:00,
2013-02-24 07:32:00,31.0,25.0,-100.00,SW,236,1.0,3.0,79,0.00,,,0.00,3.000000,,2013-02-24 15:32:00,
2013-02-24 07:42:00,31.0,25.0,-100.00,SW,236,1.0,3.0,79,0.00,,,0.00,3.000000,,2013-02-24 15:42:00,
2013-02-24 07:52:00,31.0,25.0,-100.00,SW,236,1.0,3.0,79,0.00,,,0.00,3.000000,,2013-02-24 15:52:00,
2013-02-24 08:01:00,31.0,25.0,-100.00,SW,236,1.0,3.0,79,0.00,,,0.00,3.000000,,2013-02-24 16:01:00,
2013-02-24 08:32:00,38.0,27.0,-100.00,SW,214,1.0,4.0,64,-99.99,,,0.00,122.000000,,2013-02-24 16:32:00,
2013-02-24 08:42:00,38.0,27.0,-100.00,SW,214,1.0,4.0,64,-99.99,,,0.00,122.000000,,2013-02-24 16:42:00,
2013-02-24 08:52:00,38.0,27.0,-100.00,SW,214,1.0,4.0,64,-99.99,,,0.00,122.000000,,2013-02-24 16:52:00,
2013-02-24 09:01:00,38.0,27.0,-100.00,SW,214,1.0,4.0,64,-99.99,,,0.00,122.000000,,2013-02-24 17:01:00,
2013-02-24 09:32:00,49.0,28.0,-100.00,SSE,157,0.0,3.0,44,-99.99,,,0.00,331.000000,,2013-02-24 17:32:00,
2013-02-24 09:42:00,49.0,28.0,-100.00,SSE,157,0.0,3.0,44,-99.99,,,0.00,331.000000,,2013-02-24 17:42:00,
2013-02-24 09:52:00,49.0,28.0,-100.00,SSE,157,0.0,3.0,44,-99.99,,,0.00,331.000000,,2013-02-24 17:52:00,
2013-02-24 10:01:00,49.0,28.0,-100.00,SSE,157,0.0,3.0,44,-99.99,,,0.00,331.000000,,2013-02-24 18:01:00,
2013-02-24 10:22:00,56.0,19.0,-100.00,East,81,7.0,13.0,23,0.00,,,0.00,517.000000,,2013-02-24 18:22:00,
2013-02-24 10:32:00,56.0,19.0,-100.00,East,81,7.0,13.0,23,0.00,,,0.00,517.000000,,2013-02-24 18:32:00,
2013-02-24 10:42:00,56.0,19.0,-100.00,East,81,7.0,13.0,23,0.00,,,0.00,517.000000,,2013-02-24 18:42:00,
2013-02-24 10:52:00,56.0,19.0,-100.00,East,81,7.0,13.0,23,0.00,,,0.00,517.000000,,2013-02-24 18:52:00,
2013-02-24 11:01:00,56.0,19.0,-100.00,East,81,7.0,13.0,23,0.00,,,0.00,517.000000,,2013-02-24 19:01:00,
2013-02-24 11:22:00,57.0,17.0,-100.00,East,93,9.0,17.0,21,0.00,,,0.00,643.000000,,2013-02-24 19:22:00,
2013-02-24 11:32:00,57.0,17.0,-100.00,East,93,9.0,17.0,21,0.00,,,0.00,643.000000,,2013-02-24 19:32:00,
2013-02-24 11:42:00,57.0,17.0,-100.00,East,93,9.0,17.0,21,0.00,,,0.00,643.000000,,2013-02-24 19:42:00,
2013-02-24 11:52:00,57.0,17.0,-100.00,East,93,9.0,17.0,21,0.00,,,0.00,643.000000,,2013-02-24 19:52:00,
2013-02-24 12:01:00,57.0,17.0,-100.00,East,93,9.0,17.0,21,0.00,,,0.00,643.000000,,2013-02-24 20:01:00,
2013-02-24 12:32:00,59.0,18.0,-100.00,ENE,67,7.0,16.0,20,0.00,,,0.00,681.000000,,2013-02-24 20:32:00,
2013-02-24 12:42:00,59.0,18.0,-100.00,ENE,67,7.0,16.0,20,0.00,,,0.00,681.000000,,2013-02-24 20:42:00,
2013-02-24 12:52:00,59.0,18.0,-100.00,ENE,67,7.0,16.0,20,0.00,,,0.00,681.000000,,2013-02-24 20:52:00,
2013-02-24 13:01:00,59.0,18.0,-100.00,ENE,67,7.0,16.0,20,0.00,,,0.00,681.000000,,2013-02-24 21:01:00,
2013-02-24 13:32:00,61.0,17.0,-100.00,ENE,69,7.0,15.0,18,0.00,,,0.00,761.000000,,2013-02-24 21:32:00,
2013-02-24 13:42:00,61.0,17.0,-100.00,ENE,69,7.0,15.0,18,0.00,,,0.00,761.000000,,2013-02-24 21:42:00,
2013-02-24 13:52:00,61.0,17.0,-100.00,ENE,69,7.0,15.0,18,0.00,,,0.00,761.000000,,2013-02-24 21:52:00,
2013-02-24 14:01:00,61.0,17.0,-100.00,ENE,69,7.0,15.0,18,0.00,,,0.00,761.000000,,2013-02-24 22:01:00,
2013-02-24 14:32:00,62.0,15.0,-100.00,East,92,6.0,14.0,16,0.00,,,0.00,711.000000,,2013-02-24 22:32:00,
2013-02-24 14:42:00,62.0,15.0,-100.00,East,92,6.0,14.0,16,0.00,,,0.00,711.000000,,2013-02-24 22:42:00,
2013-02-24 14:52:00,62.0,15.0,-100.00,East,92,6.0,14.0,16,0.00,,,0.00,711.000000,,2013-02-24 22:52:00,
2013-02-24 15:01:00,62.0,15.0,-100.00,East,92,6.0,14.0,16,0.00,,,0.00,711.000000,,2013-02-24 23:01:00,
2013-02-24 15:22:00,64.0,14.0,-100.00,ENE,76,7.0,14.0,14,0.00,,,0.00,613.000000,,2013-02-24 23:22:00,
2013-02-24 15:32:00,64.0,14.0,-100.00,ENE,76,7.0,14.0,14,0.00,,,0.00,613.000000,,2013-02-24 23:32:00,
2013-02-24 15:42:00,64.0,14.0,-100.00,ENE,76,7.0,14.0,14,0.00,,,0.00,613.000000,,2013-02-24 23:42:00,
2013-02-24 15:52:00,64.0,14.0,-100.00,ENE,76,7.0,14.0,14,0.00,,,0.00,613.000000,,2013-02-24 23:52:00,
2013-02-24 16:01:00,64.0,14.0,-100.00,ENE,76,7.0,14.0,14,0.00,,,0.00,613.000000,,2013-02-25 00:01:00,
2013-02-24 16:32:00,63.0,13.0,-100.00,ENE,77,6.0,17.0,14,0.00,,,0.00,446.000000,,2013-02-25 00:32:00,
2013-02-24 16:42:00,63.0,13.0,-100.00,ENE,77,6.0,17.0,14,0.00,,,0.00,446.000000,,2013-02-25 00:42:00,
2013-02-24 16:52:00,63.0,13.0,-100.00,ENE,77,6.0,17.0,14,0.00,,,0.00,446.000000,,2013-02-25 00:52:00,
2013-02-24 17:01:00,63.0,13.0,-100.00,ENE,77,6.0,17.0,14,0.00,,,0.00,446.000000,,2013-02-25 01:01:00,
2013-02-24 17:32:00,60.0,18.0,-100.00,East,82,5.0,15.0,19,0.00,,,0.00,223.000000,,2013-02-25 01:32:00,
2013-02-24 17:42:00,60.0,18.0,-100.00,East,82,5.0,15.0,19,0.00,,,0.00,223.000000,,2013-02-25 01:42:00,
2013-02-24 17:52:00,60.0,18.0,-100.00,East,82,5.0,15.0,19,0.00,,,0.00,223.000000,,2013-02-25 01:52:00,
2013-02-24 18:01:00,60.0,18.0,-100.00,East,82,5.0,15.0,19,0.00,,,0.00,223.000000,,2013-02-25 02:01:00,
2013-02-24 18:32:00,50.0,23.0,-100.00,WSW,242,2.0,10.0,35,0.00,,,0.00,13.000000,,2013-02-25 02:32:00,
2013-02-24 18:42:00,50.0,23.0,-100.00,WSW,242,2.0,10.0,35,0.00,,,0.00,13.000000,,2013-02-25 02:42:00,
2013-02-24 18:52:00,50.0,23.0,-100.00,WSW,242,2.0,10.0,35,0.00,,,0.00,13.000000,,2013-02-25 02:52:00,
2013-02-24 19:01:00,50.0,23.0,-100.00,WSW,242,2.0,10.0,35,0.00,,,0.00,13.000000,,2013-02-25 03:01:00,
2013-02-24 19:21:00,45.0,25.0,-100.00,WSW,244,1.0,5.0,45,0.00,,,0.00,0.000000,,2013-02-25 03:21:00,
2013-02-24 19:32:00,45.0,25.0,-100.00,WSW,244,1.0,5.0,45,0.00,,,0.00,0.000000,,2013-02-25 03:32:00,
2013-02-24 19:42:00,45.0,25.0,-100.00,WSW,244,1.0,5.0,45,0.00,,,0.00,0.000000,,2013-02-25 03:42:00,
2013-02-24 19:52:00,45.0,25.0,-100.00,WSW,244,1.0,5.0,45,0.00,,,0.00,0.000000,,2013-02-25 03:52:00,
2013-02-24 20:01:00,45.0,25.0,-100.00,WSW,244,1.0,5.0,45,0.00,,,0.00,0.000000,,2013-02-25 04:01:00,
2013-02-24 20:32:00,42.0,26.0,-100.00,SW,224,3.0,5.0,52,0.00,,,0.00,0.000000,,2013-02-25 04:32:00,
2013-02-24 20:42:00,42.0,26.0,-100.00,SW,224,3.0,5.0,52,0.00,,,0.00,0.000000,,2013-02-25 04:42:00,
2013-02-24 20:52:00,42.0,26.0,-100.00,SW,224,3.0,5.0,52,0.00,,,0.00,0.000000,,2013-02-25 04:52:00,
2013-02-24 21:01:00,42.0,26.0,-100.00,SW,224,3.0,5.0,52,0.00,,,0.00,0.000000,,2013-02-25 05:01:00,
2013-02-24 21:32:00,41.0,26.0,-100.00,SW,221,3.0,5.0,54,0.00,,,0.00,0.000000,,2013-02-25 05:32:00,
2013-02-24 21:42:00,41.0,26.0,-100.00,SW,221,3.0,5.0,54,0.00,,,0.00,0.000000,,2013-02-25 05:42:00,
2013-02-24 21:52:00,41.0,26.0,-100.00,SW,221,3.0,5.0,54,0.00,,,0.00,0.000000,,2013-02-25 05:52:00,
2013-02-24 22:02:00,41.0,26.0,-100.00,SW,221,3.0,5.0,54,0.00,,,0.00,0.000000,,2013-02-25 06:02:00,
2013-02-24 22:32:00,42.0,26.0,-100.00,SW,234,3.0,8.0,52,0.00,,,0.00,0.000000,,2013-02-25 06:32:00,
2013-02-24 22:42:00,42.0,26.0,-100.00,SW,234,3.0,8.0,52,0.00,,,0.00,0.000000,,2013-02-25 06:42:00,
2013-02-24 22:52:00,42.0,26.0,-100.00,SW,234,3.0,8.0,52,0.00,,,0.00,0.000000,,2013-02-25 06:52:00,
2013-02-24 23:01:00,42.0,26.0,-100.00,SW,234,3.0,8.0,52,0.00,,,0.00,0.000000,,2013-02-25 07:01:00,
2013-02-24 23:32:00,42.0,25.0,-100.00,North,357,2.0,6.0,51,0.00,,,0.00,0.000000,,2013-02-25 07:32:00,
2013-02-24 23:42:00,42.0,25.0,-100.00,North,357,2.0,6.0,51,0.00,,,0.00,0.000000,,2013-02-25 07:42:00,
2013-02-24 23:52:00,42.0,25.0,-100.00,North,357,2.0,6.0,51,0.00,,,0.00,0.000000,,2013-02-25 07:52:00,